Retour au catalogue

STARLINK-34222

ActifCommunicationsVLEO
NORAD 64191·PAYLOAD·🇺🇸 United States

Lancé May 28, 2025 depuis Cape Canaveral Space Force Station

Loading…

Prochains Passages (prochaines 24 heures)

TLE

FraisSource: CelesTrak SupGP

Époque: Sep 15, 2026, 04:00 UTC

1 64191C 25113X   26258.16715278 -.00009649  00000+0 -28468-3 0  2581
2 64191  53.1587 290.3083 0001223  89.9644 321.0273 15.34439590    17

Suivez STARLINK-34222 en temps réel avec AllMySat

Download on the App Store